Time,TemperatureF,DewpointF,PressureIn,WindDirection,WindDirectionDegrees,WindSpeedMPH,WindSpeedGustMPH,Humidity,HourlyPrecipIn,Conditions,Clouds,dailyrainin,SoftwareType,DateUTC
2013-02-02 00:02:00,7.0,-2.0,30.21,SW,225,0.0,0.0,66,0.00,,,0.00,meteohub,2013-02-02 06:02:00,
2013-02-02 00:07:00,7.0,-2.0,30.20,SW,225,0.0,0.0,66,0.00,,,0.00,meteohub,2013-02-02 06:07:00,
2013-02-02 00:12:00,7.0,-1.7,30.20,SW,225,0.0,0.0,67,0.00,,,0.00,meteohub,2013-02-02 06:12:00,
2013-02-02 00:17:00,7.2,-1.5,30.20,West,270,0.0,0.0,67,0.00,,,0.00,meteohub,2013-02-02 06:17:00,
2013-02-02 00:22:00,7.2,-1.5,30.19,SW,225,0.0,0.0,67,0.00,,,0.00,meteohub,2013-02-02 06:22:00,
2013-02-02 00:27:00,7.2,-1.5,30.19,SW,225,0.0,0.0,67,0.00,,,0.00,meteohub,2013-02-02 06:27:00,
2013-02-02 00:32:00,7.2,-1.5,30.19,South,180,0.0,0.0,67,0.00,,,0.00,meteohub,2013-02-02 06:32:00,
2013-02-02 00:37:00,7.3,-0.9,30.18,SW,225,0.0,0.0,68,0.00,,,0.00,meteohub,2013-02-02 06:37:00,
2013-02-02 00:42:00,7.3,-0.9,30.17,SW,225,0.0,0.0,68,0.00,,,0.00,meteohub,2013-02-02 06:42:00,
2013-02-02 00:47:00,7.5,-0.8,30.17,SW,225,0.0,0.0,68,0.00,,,0.00,meteohub,2013-02-02 06:47:00,
2013-02-02 00:52:00,7.5,-0.8,30.17,SW,225,0.0,0.0,68,0.00,,,0.00,meteohub,2013-02-02 06:52:00,
2013-02-02 00:57:00,7.5,-0.8,30.17,SW,225,0.0,0.0,68,0.00,,,0.00,meteohub,2013-02-02 06:57:00,
2013-02-02 01:02:00,7.7,-0.6,30.17,SW,225,0.0,0.0,68,0.00,,,0.00,meteohub,2013-02-02 07:02:00,
2013-02-02 01:07:00,7.7,-0.4,30.16,South,180,0.0,0.0,69,0.00,,,0.00,meteohub,2013-02-02 07:07:00,
2013-02-02 01:12:00,7.7,-0.4,30.16,South,180,0.0,0.0,69,0.00,,,0.00,meteohub,2013-02-02 07:12:00,
2013-02-02 01:17:00,7.9,-0.2,30.16,South,180,0.0,0.0,69,0.00,,,0.00,meteohub,2013-02-02 07:17:00,
2013-02-02 01:22:00,7.9,-0.2,30.16,SW,225,0.0,0.0,69,0.00,,,0.00,meteohub,2013-02-02 07:22:00,
2013-02-02 01:27:00,7.9,-0.2,30.16,SW,225,0.0,0.0,69,0.00,,,0.00,meteohub,2013-02-02 07:27:00,
2013-02-02 01:32:00,7.9,-0.2,30.16,SW,225,0.0,0.0,69,0.00,,,0.00,meteohub,2013-02-02 07:32:00,
2013-02-02 01:37:00,8.1,0.0,30.16,SW,225,0.0,0.0,69,0.00,,,0.00,meteohub,2013-02-02 07:37:00,
2013-02-02 01:42:00,8.1,0.0,30.15,SW,225,0.0,0.0,69,0.00,,,0.00,meteohub,2013-02-02 07:42:00,
2013-02-02 01:47:00,8.1,0.0,30.16,SW,225,0.0,0.0,69,0.00,,,0.00,meteohub,2013-02-02 07:47:00,
2013-02-02 01:52:00,8.2,0.1,30.15,North,-999,-999.0,0.0,69,0.00,,,0.00,meteohub,2013-02-02 07:52:00,
2013-02-02 01:57:00,8.2,0.1,30.15,North,-999,-999.0,0.0,69,0.00,,,0.00,meteohub,2013-02-02 07:57:00,
2013-02-02 02:02:00,8.2,0.1,30.15,North,-999,-999.0,-999.0,69,0.00,,,0.00,meteohub,2013-02-02 08:02:00,
2013-02-02 02:07:00,8.2,0.1,30.14,North,-999,-999.0,-999.0,69,0.00,,,0.00,meteohub,2013-02-02 08:07:00,
2013-02-02 02:17:00,8.4,0.3,30.14,North,-999,-999.0,-999.0,69,0.00,,,0.00,meteohub,2013-02-02 08:17:00,
2013-02-02 02:22:00,8.6,0.1,30.14,North,-999,-999.0,-999.0,68,0.00,,,0.00,meteohub,2013-02-02 08:22:00,
2013-02-02 02:27:00,8.6,0.1,30.14,North,-999,-999.0,-999.0,68,0.00,,,0.00,meteohub,2013-02-02 08:27:00,
2013-02-02 02:32:00,8.6,0.1,30.14,SW,225,0.0,-999.0,68,0.00,,,0.00,meteohub,2013-02-02 08:32:00,
2013-02-02 02:42:00,8.8,0.3,30.13,North,-999,-999.0,0.0,68,0.00,,,0.00,meteohub,2013-02-02 08:42:00,
2013-02-02 02:47:00,8.8,0.7,30.13,North,-999,-999.0,0.0,69,0.00,,,0.00,meteohub,2013-02-02 08:47:00,
2013-02-02 02:52:00,9.0,0.9,30.13,North,-999,-999.0,-999.0,69,0.00,,,0.00,meteohub,2013-02-02 08:52:00,
2013-02-02 02:57:00,9.0,0.9,30.12,North,-999,-999.0,-999.0,69,0.00,,,0.00,meteohub,2013-02-02 08:57:00,
2013-02-02 03:02:00,9.0,0.9,30.12,North,-999,-999.0,-999.0,69,0.00,,,0.00,meteohub,2013-02-02 09:02:00,
2013-02-02 03:07:00,9.0,0.9,30.12,North,-999,-999.0,-999.0,69,0.00,,,0.00,meteohub,2013-02-02 09:07:00,
2013-02-02 03:12:00,9.0,0.9,30.12,North,-999,-999.0,-999.0,69,0.00,,,0.00,meteohub,2013-02-02 09:12:00,
2013-02-02 03:17:00,9.1,1.0,30.12,North,-999,-999.0,-999.0,69,0.00,,,0.00,meteohub,2013-02-02 09:17:00,
2013-02-02 03:22:00,9.1,1.0,30.11,North,-999,-999.0,-999.0,69,0.00,,,0.00,meteohub,2013-02-02 09:22:00,
2013-02-02 03:27:00,9.1,1.0,30.11,North,-999,-999.0,-999.0,69,0.00,,,0.00,meteohub,2013-02-02 09:27:00,
2013-02-02 03:32:00,9.1,1.0,30.11,North,-999,-999.0,-999.0,69,0.00,,,0.00,meteohub,2013-02-02 09:32:00,
2013-02-02 03:37:00,9.3,1.2,30.10,North,-999,-999.0,-999.0,69,0.00,,,0.00,meteohub,2013-02-02 09:37:00,
2013-02-02 03:42:00,9.3,1.2,30.11,North,-999,-999.0,-999.0,69,0.00,,,0.00,meteohub,2013-02-02 09:42:00,
2013-02-02 03:47:00,9.5,1.4,30.10,North,-999,-999.0,-999.0,69,0.00,,,0.00,meteohub,2013-02-02 09:47:00,
2013-02-02 03:52:00,9.5,1.4,30.10,North,-999,-999.0,-999.0,69,0.00,,,0.00,meteohub,2013-02-02 09:52:00,
2013-02-02 03:57:00,9.5,1.4,30.11,North,-999,-999.0,-999.0,69,0.00,,,0.00,meteohub,2013-02-02 09:57:00,
2013-02-02 04:02:00,9.5,1.4,30.10,North,-999,-999.0,-999.0,69,0.00,,,0.00,meteohub,2013-02-02 10:02:00,
2013-02-02 04:07:00,9.3,1.2,30.10,North,-999,-999.0,-999.0,69,0.00,,,0.00,meteohub,2013-02-02 10:07:00,
2013-02-02 04:12:00,9.3,1.2,30.09,North,-999,-999.0,-999.0,69,0.00,,,0.00,meteohub,2013-02-02 10:12:00,
2013-02-02 04:17:00,9.3,1.2,30.09,North,-999,-999.0,-999.0,69,0.00,,,0.00,meteohub,2013-02-02 10:17:00,
2013-02-02 04:22:00,9.3,1.2,30.10,North,-999,-999.0,-999.0,69,0.00,,,0.00,meteohub,2013-02-02 10:22:00,
2013-02-02 04:27:00,9.3,0.9,30.10,North,-999,-999.0,-999.0,68,0.00,,,0.00,meteohub,2013-02-02 10:27:00,
2013-02-02 04:32:00,9.1,0.7,30.09,North,-999,-999.0,-999.0,68,0.00,,,0.00,meteohub,2013-02-02 10:32:00,
2013-02-02 04:37:00,9.1,0.7,30.09,North,-999,-999.0,-999.0,68,0.00,,,0.00,meteohub,2013-02-02 10:37:00,
2013-02-02 04:42:00,9.1,0.7,30.09,North,-999,-999.0,-999.0,68,0.00,,,0.00,meteohub,2013-02-02 10:42:00,
2013-02-02 04:47:00,9.1,0.7,30.09,North,0,0.0,-999.0,68,0.00,,,0.00,meteohub,2013-02-02 10:47:00,
2013-02-02 04:52:00,9.1,0.7,30.09,North,-999,-999.0,0.0,68,0.00,,,0.00,meteohub,2013-02-02 10:52:00,
2013-02-02 04:57:00,9.1,0.7,30.09,North,-999,-999.0,0.0,68,0.00,,,0.00,meteohub,2013-02-02 10:57:00,
2013-02-02 05:02:00,9.1,0.7,30.09,North,-999,-999.0,0.0,68,0.00,,,0.00,meteohub,2013-02-02 11:02:00,
2013-02-02 05:07:00,9.0,0.5,30.09,North,-999,-999.0,-999.0,68,0.00,,,0.00,meteohub,2013-02-02 11:07:00,
2013-02-02 05:12:00,9.0,0.5,30.09,North,-999,-999.0,-999.0,68,0.00,,,0.00,meteohub,2013-02-02 11:12:00,
2013-02-02 05:17:00,9.0,0.5,30.09,North,-999,-999.0,-999.0,68,0.00,,,0.00,meteohub,2013-02-02 11:17:00,
2013-02-02 05:22:00,8.8,0.3,30.09,North,-999,-999.0,-999.0,68,0.00,,,0.00,meteohub,2013-02-02 11:22:00,
2013-02-02 05:27:00,8.8,0.3,30.09,North,-999,-999.0,-999.0,68,0.00,,,0.00,meteohub,2013-02-02 11:27:00,
2013-02-02 05:32:00,8.6,0.1,30.09,North,-999,-999.0,-999.0,68,0.00,,,0.00,meteohub,2013-02-02 11:32:00,
2013-02-02 05:37:00,8.4,0.3,30.10,North,-999,-999.0,-999.0,69,0.00,,,0.00,meteohub,2013-02-02 11:37:00,
2013-02-02 05:42:00,8.4,0.3,30.10,North,-999,-999.0,-999.0,69,0.00,,,0.00,meteohub,2013-02-02 11:42:00,
2013-02-02 05:47:00,8.4,0.3,30.09,North,-999,-999.0,-999.0,69,0.00,,,0.00,meteohub,2013-02-02 11:47:00,
2013-02-02 05:52:00,8.2,0.1,30.10,North,-999,-999.0,-999.0,69,0.00,,,0.00,meteohub,2013-02-02 11:52:00,
2013-02-02 05:57:00,8.1,0.0,30.10,North,-999,-999.0,-999.0,69,0.00,,,0.00,meteohub,2013-02-02 11:57:00,
2013-02-02 06:02:00,8.1,-0.2,30.10,North,-999,-999.0,-999.0,68,0.00,,,0.00,meteohub,2013-02-02 12:02:00,
2013-02-02 06:07:00,7.9,-0.4,30.10,North,-999,-999.0,-999.0,68,0.00,,,0.00,meteohub,2013-02-02 12:07:00,
2013-02-02 06:12:00,7.9,-0.4,30.10,North,-999,-999.0,-999.0,68,0.00,,,0.00,meteohub,2013-02-02 12:12:00,
2013-02-02 06:17:00,7.7,-0.6,30.10,North,-999,-999.0,-999.0,68,0.00,,,0.00,meteohub,2013-02-02 12:17:00,
2013-02-02 06:22:00,7.7,-0.9,30.10,North,-999,-999.0,-999.0,67,0.00,,,0.00,meteohub,2013-02-02 12:22:00,
2013-02-02 06:27:00,7.7,-0.9,30.10,North,-999,-999.0,-999.0,67,0.00,,,0.00,meteohub,2013-02-02 12:27:00,
2013-02-02 06:32:00,7.7,-0.9,30.10,North,-999,-999.0,-999.0,67,0.00,,,0.00,meteohub,2013-02-02 12:32:00,
2013-02-02 06:37:00,7.7,-0.9,30.11,North,-999,-999.0,-999.0,67,0.00,,,0.00,meteohub,2013-02-02 12:37:00,
2013-02-02 06:42:00,7.7,-0.9,30.10,North,-999,-999.0,-999.0,67,0.00,,,0.00,meteohub,2013-02-02 12:42:00,
2013-02-02 06:47:00,7.7,-0.9,30.10,North,-999,-999.0,-999.0,67,0.00,,,0.00,meteohub,2013-02-02 12:47:00,
2013-02-02 06:52:00,7.7,-0.9,30.10,North,-999,-999.0,-999.0,67,0.00,,,0.00,meteohub,2013-02-02 12:52:00,
2013-02-02 06:57:00,7.7,-0.9,30.11,North,-999,-999.0,-999.0,67,0.00,,,0.00,meteohub,2013-02-02 12:57:00,
2013-02-02 07:02:00,7.7,-1.3,30.11,North,-999,-999.0,-999.0,66,0.00,,,0.00,meteohub,2013-02-02 13:02:00,
2013-02-02 07:07:00,7.5,-1.5,30.11,North,-999,-999.0,-999.0,66,0.00,,,0.00,meteohub,2013-02-02 13:07:00,
2013-02-02 07:12:00,7.5,-1.5,30.11,North,-999,-999.0,-999.0,66,0.00,,,0.00,meteohub,2013-02-02 13:12:00,
2013-02-02 07:17:00,7.3,-2.0,30.12,North,-999,-999.0,-999.0,65,0.00,,,0.00,meteohub,2013-02-02 13:17:00,
2013-02-02 07:22:00,7.3,-2.0,30.12,North,-999,-999.0,-999.0,65,0.00,,,0.00,meteohub,2013-02-02 13:22:00,
2013-02-02 07:27:00,7.3,-2.2,30.12,North,-999,-999.0,-999.0,64,0.00,,,0.00,meteohub,2013-02-02 13:27:00,
2013-02-02 07:32:00,7.3,-2.2,30.12,North,-999,-999.0,-999.0,64,0.00,,,0.00,meteohub,2013-02-02 13:32:00,
2013-02-02 07:37:00,7.2,-2.7,30.13,North,-999,-999.0,-999.0,63,0.00,,,0.00,meteohub,2013-02-02 13:37:00,
2013-02-02 07:42:00,7.2,-3.1,30.13,North,0,0.0,-999.0,62,0.00,,,0.00,meteohub,2013-02-02 13:42:00,
2013-02-02 07:47:00,7.0,-3.3,30.13,North,-999,-999.0,0.0,62,0.00,,,0.00,meteohub,2013-02-02 13:47:00,
2013-02-02 07:52:00,7.0,-3.6,30.13,North,-999,-999.0,0.0,61,0.00,,,0.00,meteohub,2013-02-02 13:52:00,
2013-02-02 07:57:00,7.0,-4.0,30.14,North,-999,-999.0,0.0,60,0.00,,,0.00,meteohub,2013-02-02 13:57:00,
2013-02-02 08:02:00,7.0,-4.0,30.13,North,-999,-999.0,-999.0,60,0.00,,,0.00,meteohub,2013-02-02 14:02:00,
2013-02-02 08:07:00,7.0,-4.0,30.13,North,-999,-999.0,-999.0,60,0.00,,,0.00,meteohub,2013-02-02 14:07:00,
2013-02-02 08:12:00,7.0,-4.0,30.14,North,-999,-999.0,-999.0,60,0.00,,,0.00,meteohub,2013-02-02 14:12:00,
2013-02-02 08:17:00,7.2,-4.2,30.14,North,-999,-999.0,-999.0,59,0.00,,,0.00,meteohub,2013-02-02 14:17:00,
2013-02-02 08:22:00,7.2,-4.2,30.13,North,-999,-999.0,-999.0,59,0.00,,,0.00,meteohub,2013-02-02 14:22:00,
2013-02-02 08:27:00,7.2,-4.2,30.13,North,-999,-999.0,-999.0,59,0.00,,,0.00,meteohub,2013-02-02 14:27:00,
2013-02-02 08:32:00,7.5,-3.8,30.14,North,-999,-999.0,-999.0,59,0.00,,,0.00,meteohub,2013-02-02 14:32:00,
2013-02-02 08:37:00,7.7,-3.6,30.14,North,-999,-999.0,-999.0,59,0.00,,,0.00,meteohub,2013-02-02 14:37:00,
2013-02-02 08:42:00,7.5,-3.8,30.14,North,-999,-999.0,-999.0,59,0.00,,,0.00,meteohub,2013-02-02 14:42:00,
2013-02-02 08:47:00,7.5,-3.8,30.14,North,-999,-999.0,-999.0,59,0.00,,,0.00,meteohub,2013-02-02 14:47:00,
2013-02-02 08:52:00,7.2,-4.5,30.14,North,-999,-999.0,-999.0,58,0.00,,,0.00,meteohub,2013-02-02 14:52:00,
2013-02-02 08:57:00,7.3,-4.4,30.14,North,-999,-999.0,-999.0,58,0.00,,,0.00,meteohub,2013-02-02 14:57:00,
2013-02-02 09:02:00,7.7,-4.0,30.14,North,-999,-999.0,-999.0,58,0.00,,,0.00,meteohub,2013-02-02 15:02:00,
2013-02-02 09:07:00,8.1,-3.6,30.14,North,-999,-999.0,-999.0,58,0.00,,,0.00,meteohub,2013-02-02 15:07:00,
2013-02-02 09:12:00,8.1,-4.0,30.14,North,-999,-999.0,-999.0,57,0.00,,,0.00,meteohub,2013-02-02 15:12:00,
2013-02-02 09:17:00,8.1,-4.4,30.13,North,-999,-999.0,-999.0,56,0.00,,,0.00,meteohub,2013-02-02 15:17:00,
2013-02-02 09:22:00,8.4,-4.0,30.13,North,-999,-999.0,-999.0,56,0.00,,,0.00,meteohub,2013-02-02 15:22:00,
2013-02-02 09:27:00,9.0,-4.0,30.14,North,-999,-999.0,-999.0,55,0.00,,,0.00,meteohub,2013-02-02 15:27:00,
2013-02-02 09:32:00,9.1,-4.5,30.14,North,-999,-999.0,-999.0,53,0.00,,,0.00,meteohub,2013-02-02 15:32:00,
2013-02-02 09:37:00,8.8,-5.6,30.14,North,-999,-999.0,-999.0,51,0.00,,,0.00,meteohub,2013-02-02 15:37:00,
2013-02-02 09:42:00,8.8,-6.0,30.14,North,-999,-999.0,-999.0,50,0.00,,,0.00,meteohub,2013-02-02 15:42:00,
2013-02-02 09:47:00,9.1,-5.8,30.13,North,-999,-999.0,-999.0,50,0.00,,,0.00,meteohub,2013-02-02 15:47:00,
2013-02-02 09:52:00,9.5,-5.4,30.13,North,-999,-999.0,-999.0,50,0.00,,,0.00,meteohub,2013-02-02 15:52:00,
2013-02-02 09:57:00,10.0,-4.9,30.13,North,-999,-999.0,-999.0,50,0.00,,,0.00,meteohub,2013-02-02 15:57:00,
2013-02-02 10:02:00,9.9,-5.4,30.14,North,-999,-999.0,-999.0,49,0.00,,,0.00,meteohub,2013-02-02 16:02:00,
2013-02-02 10:07:00,10.0,-5.8,30.14,North,-999,-999.0,-999.0,48,0.00,,,0.00,meteohub,2013-02-02 16:07:00,
2013-02-02 10:12:00,10.4,-4.2,30.13,North,-999,-999.0,-999.0,51,0.00,,,0.00,meteohub,2013-02-02 16:12:00,
2013-02-02 10:17:00,10.8,-3.8,30.13,North,-999,-999.0,-999.0,51,0.00,,,0.00,meteohub,2013-02-02 16:17:00,
2013-02-02 10:22:00,11.1,-3.8,30.13,North,-999,-999.0,-999.0,50,0.00,,,0.00,meteohub,2013-02-02 16:22:00,
2013-02-02 10:27:00,10.4,-4.9,30.13,North,-999,-999.0,-999.0,49,0.00,,,0.00,meteohub,2013-02-02 16:27:00,
2013-02-02 10:32:00,10.6,-4.9,30.13,North,-999,-999.0,-999.0,49,0.00,,,0.00,meteohub,2013-02-02 16:32:00,
2013-02-02 10:42:00,11.5,-4.4,30.13,West,270,0.0,0.0,48,0.00,,,0.00,meteohub,2013-02-02 16:42:00,
2013-02-02 10:47:00,11.1,-4.7,30.14,North,-999,-999.0,0.0,48,0.00,,,0.00,meteohub,2013-02-02 16:47:00,
2013-02-02 10:52:00,11.7,-4.2,30.14,North,-999,-999.0,0.0,48,0.00,,,0.00,meteohub,2013-02-02 16:52:00,
2013-02-02 10:57:00,11.8,-4.0,30.14,North,-999,-999.0,-999.0,48,0.00,,,0.00,meteohub,2013-02-02 16:57:00,
2013-02-02 11:02:00,12.6,-3.8,30.13,North,-999,-999.0,-999.0,47,0.00,,,0.00,meteohub,2013-02-02 17:02:00,
2013-02-02 11:07:00,12.4,-4.0,30.14,North,-999,-999.0,-999.0,47,0.00,,,0.00,meteohub,2013-02-02 17:07:00,
2013-02-02 11:12:00,13.5,-3.1,30.13,NW,315,0.0,0.0,47,0.00,,,0.00,meteohub,2013-02-02 17:12:00,
2013-02-02 11:17:00,13.5,-4.0,30.13,NW,315,0.0,0.0,45,0.00,,,0.00,meteohub,2013-02-02 17:17:00,
2013-02-02 11:22:00,13.5,-4.4,30.13,NW,315,0.0,0.0,44,0.00,,,0.00,meteohub,2013-02-02 17:22:00,
2013-02-02 11:27:00,12.6,-5.6,30.13,NNW,338,0.0,0.0,43,0.00,,,0.00,meteohub,2013-02-02 17:27:00,
2013-02-02 11:32:00,12.9,-5.4,30.13,North,0,0.0,0.0,43,0.00,,,0.00,meteohub,2013-02-02 17:32:00,
2013-02-02 11:37:00,14.0,-4.9,30.13,North,0,0.0,0.0,42,0.00,,,0.00,meteohub,2013-02-02 17:37:00,
2013-02-02 11:42:00,14.4,-4.5,30.13,NE,45,0.0,0.0,42,0.00,,,0.00,meteohub,2013-02-02 17:42:00,
2013-02-02 11:47:00,14.2,-4.7,30.12,West,270,0.0,0.0,42,0.00,,,0.00,meteohub,2013-02-02 17:47:00,
2013-02-02 11:52:00,14.7,-4.7,30.12,NW,315,0.0,0.0,41,0.00,,,0.00,meteohub,2013-02-02 17:52:00,
2013-02-02 11:57:00,14.2,-5.3,30.12,NW,315,0.0,0.0,41,0.00,,,0.00,meteohub,2013-02-02 17:57:00,
2013-02-02 12:02:00,15.4,-4.0,30.12,ENE,68,0.0,0.0,41,0.00,,,0.00,meteohub,2013-02-02 18:02:00,
2013-02-02 12:07:00,15.8,-4.2,30.12,NE,45,0.0,0.0,40,0.00,,,0.00,meteohub,2013-02-02 18:07:00,
2013-02-02 12:12:00,15.8,-4.7,30.12,North,-999,-999.0,0.0,39,0.00,,,0.00,meteohub,2013-02-02 18:12:00,
2013-02-02 12:17:00,15.4,-4.5,30.12,North,-999,-999.0,0.0,40,0.00,,,0.00,meteohub,2013-02-02 18:17:00,
2013-02-02 12:22:00,15.6,-4.4,30.12,North,-999,-999.0,0.0,40,0.00,,,0.00,meteohub,2013-02-02 18:22:00,
2013-02-02 12:27:00,15.8,-4.7,30.12,North,-999,-999.0,-999.0,39,0.00,,,0.00,meteohub,2013-02-02 18:27:00,
2013-02-02 12:32:00,16.2,-4.5,30.12,North,-999,-999.0,-999.0,39,0.00,,,0.00,meteohub,2013-02-02 18:32:00,
2013-02-02 12:37:00,17.1,-3.6,30.12,North,-999,-999.0,-999.0,39,0.00,,,0.00,meteohub,2013-02-02 18:37:00,
2013-02-02 12:42:00,17.6,-4.9,30.11,East,90,0.0,0.0,36,0.00,,,0.00,meteohub,2013-02-02 18:42:00,
2013-02-02 12:47:00,16.5,-6.3,30.12,North,-999,-999.0,0.0,35,0.00,,,0.00,meteohub,2013-02-02 18:47:00,
2013-02-02 12:52:00,16.0,-6.9,30.11,SE,135,0.0,0.0,35,0.00,,,0.00,meteohub,2013-02-02 18:52:00,
2013-02-02 12:57:00,16.3,-6.0,30.11,North,-999,-999.0,0.0,36,0.00,,,0.00,meteohub,2013-02-02 18:57:00,
2013-02-02 13:02:00,16.5,-6.3,30.11,NW,315,0.0,0.0,35,0.00,,,0.00,meteohub,2013-02-02 19:02:00,
2013-02-02 13:07:00,15.1,-7.6,30.11,NW,315,0.0,0.0,35,0.00,,,0.00,meteohub,2013-02-02 19:07:00,
2013-02-02 13:12:00,15.3,-6.3,30.12,North,-999,-999.0,0.0,37,0.00,,,0.00,meteohub,2013-02-02 19:12:00,
2013-02-02 13:17:00,15.1,-6.5,30.11,North,-999,-999.0,0.0,37,0.00,,,0.00,meteohub,2013-02-02 19:17:00,
2013-02-02 13:22:00,15.3,-6.3,30.11,North,-999,-999.0,-999.0,37,0.00,,,0.00,meteohub,2013-02-02 19:22:00,
2013-02-02 13:27:00,16.3,-5.4,30.11,North,-999,-999.0,-999.0,37,0.00,,,0.00,meteohub,2013-02-02 19:27:00,
2013-02-02 13:32:00,15.6,-6.5,30.11,North,-999,-999.0,-999.0,36,0.00,,,0.00,meteohub,2013-02-02 19:32:00,
2013-02-02 13:37:00,16.3,-6.0,30.10,North,-999,-999.0,-999.0,36,0.00,,,0.00,meteohub,2013-02-02 19:37:00,
2013-02-02 13:42:00,16.2,-7.2,30.11,North,-999,-999.0,-999.0,34,0.00,,,0.00,meteohub,2013-02-02 19:42:00,
2013-02-02 13:47:00,16.7,-6.9,30.11,North,-999,-999.0,-999.0,34,0.00,,,0.00,meteohub,2013-02-02 19:47:00,
2013-02-02 13:52:00,16.5,-7.6,30.11,North,-999,-999.0,-999.0,33,0.00,,,0.00,meteohub,2013-02-02 19:52:00,
2013-02-02 13:57:00,16.7,-8.1,30.11,North,-999,-999.0,-999.0,32,0.00,,,0.00,meteohub,2013-02-02 19:57:00,
2013-02-02 14:02:00,17.2,-7.6,30.10,North,-999,-999.0,-999.0,32,0.00,,,0.00,meteohub,2013-02-02 20:02:00,
2013-02-02 14:07:00,16.2,-9.8,30.11,North,-999,-999.0,-999.0,30,0.00,,,0.00,meteohub,2013-02-02 20:07:00,
2013-02-02 14:12:00,17.1,-7.8,30.11,North,-999,-999.0,-999.0,32,0.00,,,0.00,meteohub,2013-02-02 20:12:00,
2013-02-02 14:17:00,18.1,-7.4,30.11,North,-999,-999.0,-999.0,31,0.00,,,0.00,meteohub,2013-02-02 20:17:00,
2013-02-02 14:22:00,17.8,-9.0,30.11,North,-999,-999.0,-999.0,29,0.00,,,0.00,meteohub,2013-02-02 20:22:00,
2013-02-02 14:27:00,17.6,-9.2,30.11,North,-999,-999.0,-999.0,29,0.00,,,0.00,meteohub,2013-02-02 20:27:00,
2013-02-02 14:32:00,17.1,-9.8,30.11,North,-999,-999.0,-999.0,29,0.00,,,0.00,meteohub,2013-02-02 20:32:00,
2013-02-02 14:37:00,15.3,-11.4,30.12,North,-999,-999.0,-999.0,29,0.00,,,0.00,meteohub,2013-02-02 20:37:00,
2013-02-02 14:42:00,15.4,-10.5,30.12,North,-999,-999.0,-999.0,30,0.00,,,0.00,meteohub,2013-02-02 20:42:00,
2013-02-02 14:47:00,15.8,-10.1,30.12,North,-999,-999.0,-999.0,30,0.00,,,0.00,meteohub,2013-02-02 20:47:00,
2013-02-02 14:52:00,15.1,-9.4,30.12,North,-999,-999.0,-999.0,32,0.00,,,0.00,meteohub,2013-02-02 20:52:00,
2013-02-02 14:57:00,16.3,-9.0,30.12,North,-999,-999.0,-999.0,31,0.00,,,0.00,meteohub,2013-02-02 20:57:00,
2013-02-02 15:02:00,15.3,-10.7,30.12,North,-999,-999.0,-999.0,30,0.00,,,0.00,meteohub,2013-02-02 21:02:00,
2013-02-02 15:07:00,15.1,-10.8,30.12,North,-999,-999.0,-999.0,30,0.00,,,0.00,meteohub,2013-02-02 21:07:00,
2013-02-02 15:12:00,15.8,-10.8,30.12,North,-999,-999.0,-999.0,29,0.00,,,0.00,meteohub,2013-02-02 21:12:00,
2013-02-02 15:17:00,15.4,-10.5,30.13,North,-999,-999.0,-999.0,30,0.00,,,0.00,meteohub,2013-02-02 21:17:00,
2013-02-02 15:22:00,14.5,-11.9,30.13,North,-999,-999.0,-999.0,29,0.00,,,0.00,meteohub,2013-02-02 21:22:00,
2013-02-02 15:27:00,14.4,-11.4,30.13,North,-999,-999.0,-999.0,30,0.00,,,0.00,meteohub,2013-02-02 21:27:00,
2013-02-02 15:32:00,14.4,-10.8,30.13,North,-999,-999.0,-999.0,31,0.00,,,0.00,meteohub,2013-02-02 21:32:00,
2013-02-02 15:37:00,13.6,-10.8,30.13,North,-999,-999.0,-999.0,32,0.00,,,0.00,meteohub,2013-02-02 21:37:00,
2013-02-02 15:42:00,13.1,-11.2,30.14,North,-999,-999.0,-999.0,32,0.00,,,0.00,meteohub,2013-02-02 21:42:00,
2013-02-02 15:47:00,12.7,-11.6,30.14,North,-999,-999.0,-999.0,32,0.00,,,0.00,meteohub,2013-02-02 21:47:00,
2013-02-02 15:52:00,12.2,-11.4,30.14,North,-999,-999.0,-999.0,33,0.00,,,0.00,meteohub,2013-02-02 21:52:00,
2013-02-02 15:57:00,12.2,-10.3,30.14,North,-999,-999.0,-999.0,35,0.00,,,0.00,meteohub,2013-02-02 21:57:00,
2013-02-02 16:02:00,11.7,-9.6,30.14,North,-999,-999.0,-999.0,37,0.00,,,0.00,meteohub,2013-02-02 22:02:00,
2013-02-02 16:07:00,11.1,-10.1,30.14,North,-999,-999.0,-999.0,37,0.00,,,0.00,meteohub,2013-02-02 22:07:00,
2013-02-02 16:12:00,10.9,-9.8,30.14,North,-999,-999.0,-999.0,38,0.00,,,0.00,meteohub,2013-02-02 22:12:00,
2013-02-02 16:17:00,10.8,-9.4,30.14,North,-999,-999.0,-999.0,39,0.00,,,0.00,meteohub,2013-02-02 22:17:00,
2013-02-02 16:22:00,10.6,-9.0,30.14,North,-999,-999.0,-999.0,40,0.00,,,0.00,meteohub,2013-02-02 22:22:00,
2013-02-02 16:27:00,10.4,-8.1,30.14,North,-999,-999.0,-999.0,42,0.00,,,0.00,meteohub,2013-02-02 22:27:00,
2013-02-02 16:32:00,10.0,-10.5,30.14,North,-999,-999.0,-999.0,38,0.00,,,0.00,meteohub,2013-02-02 22:32:00,
2013-02-02 16:37:00,9.7,-10.8,30.14,North,-999,-999.0,-999.0,38,0.00,,,0.00,meteohub,2013-02-02 22:37:00,
2013-02-02 16:42:00,9.5,-11.0,30.14,North,-999,-999.0,-999.0,38,0.00,,,0.00,meteohub,2013-02-02 22:42:00,
2013-02-02 16:47:00,9.3,-11.2,30.14,North,-999,-999.0,-999.0,38,0.00,,,0.00,meteohub,2013-02-02 22:47:00,
2013-02-02 16:52:00,9.1,-11.4,30.15,North,-999,-999.0,-999.0,38,0.00,,,0.00,meteohub,2013-02-02 22:52:00,
2013-02-02 16:57:00,8.8,-11.7,30.15,North,-999,-999.0,-999.0,38,0.00,,,0.00,meteohub,2013-02-02 22:57:00,
2013-02-02 17:02:00,8.6,-11.7,30.15,North,-999,-999.0,-999.0,38,0.00,,,0.00,meteohub,2013-02-02 23:02:00,
2013-02-02 17:07:00,8.6,-11.4,30.15,North,-999,-999.0,-999.0,39,0.00,,,0.00,meteohub,2013-02-02 23:07:00,
2013-02-02 17:12:00,8.4,-11.0,30.15,North,-999,-999.0,-999.0,40,0.00,,,0.00,meteohub,2013-02-02 23:12:00,
2013-02-02 17:17:00,8.2,-11.0,30.16,North,-999,-999.0,-999.0,40,0.00,,,0.00,meteohub,2013-02-02 23:17:00,
2013-02-02 17:22:00,8.1,-11.2,30.16,North,-999,-999.0,-999.0,40,0.00,,,0.00,meteohub,2013-02-02 23:22:00,
2013-02-02 17:27:00,7.9,-11.0,30.16,North,-999,-999.0,-999.0,41,0.00,,,0.00,meteohub,2013-02-02 23:27:00,
2013-02-02 17:32:00,7.7,-11.0,30.16,North,-999,-999.0,-999.0,41,0.00,,,0.00,meteohub,2013-02-02 23:32:00,
2013-02-02 17:37:00,7.7,-11.0,30.16,North,-999,-999.0,-999.0,41,0.00,,,0.00,meteohub,2013-02-02 23:37:00,
2013-02-02 17:42:00,7.5,-9.8,30.16,North,-999,-999.0,-999.0,44,0.00,,,0.00,meteohub,2013-02-02 23:42:00,
2013-02-02 17:47:00,7.3,-9.9,30.16,North,-999,-999.0,-999.0,44,0.00,,,0.00,meteohub,2013-02-02 23:47:00,
2013-02-02 17:52:00,7.2,-10.1,30.16,North,-999,-999.0,-999.0,44,0.00,,,0.00,meteohub,2013-02-02 23:52:00,
2013-02-02 17:57:00,7.0,-10.3,30.16,North,-999,-999.0,-999.0,44,0.00,,,0.00,meteohub,2013-02-02 23:57:00,
2013-02-02 18:02:00,7.0,-9.9,30.17,North,-999,-999.0,-999.0,45,0.00,,,0.00,meteohub,2013-02-03 00:02:00,
2013-02-02 18:07:00,6.8,-10.1,30.17,North,-999,-999.0,-999.0,45,0.00,,,0.00,meteohub,2013-02-03 00:07:00,
2013-02-02 18:12:00,6.8,-10.1,30.17,North,-999,-999.0,-999.0,45,0.00,,,0.00,meteohub,2013-02-03 00:12:00,
2013-02-02 18:17:00,6.6,-9.8,30.17,North,-999,-999.0,-999.0,46,0.00,,,0.00,meteohub,2013-02-03 00:17:00,
2013-02-02 18:22:00,6.8,-10.1,30.17,North,-999,-999.0,-999.0,45,0.00,,,0.00,meteohub,2013-02-03 00:22:00,
2013-02-02 18:27:00,6.8,-10.1,30.17,North,-999,-999.0,-999.0,45,0.00,,,0.00,meteohub,2013-02-03 00:27:00,
2013-02-02 18:32:00,6.8,-10.1,30.17,North,-999,-999.0,-999.0,45,0.00,,,0.00,meteohub,2013-02-03 00:32:00,
2013-02-02 18:37:00,6.8,-10.1,30.18,North,-999,-999.0,-999.0,45,0.00,,,0.00,meteohub,2013-02-03 00:37:00,
2013-02-02 18:42:00,6.8,-9.6,30.17,North,-999,-999.0,-999.0,46,0.00,,,0.00,meteohub,2013-02-03 00:42:00,
2013-02-02 18:47:00,6.8,-9.6,30.17,North,-999,-999.0,-999.0,46,0.00,,,0.00,meteohub,2013-02-03 00:47:00,
2013-02-02 18:52:00,6.8,-9.6,30.17,North,-999,-999.0,-999.0,46,0.00,,,0.00,meteohub,2013-02-03 00:52:00,
2013-02-02 18:57:00,6.8,-9.6,30.17,North,-999,-999.0,-999.0,46,0.00,,,0.00,meteohub,2013-02-03 00:57:00,
2013-02-02 19:02:00,6.8,-9.6,30.17,North,-999,-999.0,-999.0,46,0.00,,,0.00,meteohub,2013-02-03 01:02:00,
2013-02-02 19:07:00,6.6,-8.9,30.17,North,-999,-999.0,-999.0,48,0.00,,,0.00,meteohub,2013-02-03 01:07:00,
2013-02-02 19:12:00,6.6,-8.9,30.17,North,-999,-999.0,-999.0,48,0.00,,,0.00,meteohub,2013-02-03 01:12:00,
2013-02-02 19:17:00,6.6,-8.9,30.17,North,-999,-999.0,-999.0,48,0.00,,,0.00,meteohub,2013-02-03 01:17:00,
2013-02-02 19:22:00,6.6,-8.9,30.17,North,-999,-999.0,-999.0,48,0.00,,,0.00,meteohub,2013-02-03 01:22:00,
2013-02-02 19:27:00,6.6,-8.9,30.17,North,-999,-999.0,-999.0,48,0.00,,,0.00,meteohub,2013-02-03 01:27:00,
2013-02-02 19:32:00,6.6,-8.9,30.17,North,-999,-999.0,-999.0,48,0.00,,,0.00,meteohub,2013-02-03 01:32:00,
2013-02-02 19:37:00,6.6,-8.9,30.16,North,-999,-999.0,-999.0,48,0.00,,,0.00,meteohub,2013-02-03 01:37:00,
2013-02-02 19:42:00,6.6,-8.9,30.16,North,-999,-999.0,-999.0,48,0.00,,,0.00,meteohub,2013-02-03 01:42:00,
2013-02-02 19:47:00,6.6,-8.9,30.16,North,-999,-999.0,-999.0,48,0.00,,,0.00,meteohub,2013-02-03 01:47:00,
2013-02-02 19:52:00,6.6,-8.9,30.16,North,-999,-999.0,-999.0,48,0.00,,,0.00,meteohub,2013-02-03 01:52:00,
2013-02-02 19:57:00,6.6,-8.9,30.15,North,-999,-999.0,-999.0,48,0.00,,,0.00,meteohub,2013-02-03 01:57:00,
2013-02-02 20:02:00,6.6,-8.9,30.15,North,-999,-999.0,-999.0,48,0.00,,,0.00,meteohub,2013-02-03 02:02:00,
2013-02-02 20:07:00,6.8,-9.2,30.16,North,-999,-999.0,-999.0,47,0.00,,,0.00,meteohub,2013-02-03 02:07:00,
2013-02-02 20:12:00,6.8,-9.2,30.15,North,-999,-999.0,-999.0,47,0.00,,,0.00,meteohub,2013-02-03 02:12:00,
2013-02-02 20:17:00,6.8,-9.2,30.14,North,-999,-999.0,-999.0,47,0.00,,,0.00,meteohub,2013-02-03 02:17:00,
2013-02-02 20:22:00,6.8,-9.2,30.14,North,-999,-999.0,-999.0,47,0.00,,,0.00,meteohub,2013-02-03 02:22:00,
2013-02-02 20:27:00,6.8,-9.2,30.14,North,-999,-999.0,-999.0,47,0.00,,,0.00,meteohub,2013-02-03 02:27:00,
2013-02-02 20:32:00,6.6,-8.9,30.14,North,-999,-999.0,-999.0,48,0.00,,,0.00,meteohub,2013-02-03 02:32:00,
2013-02-02 20:37:00,6.6,-8.9,30.14,North,-999,-999.0,-999.0,48,0.00,,,0.00,meteohub,2013-02-03 02:37:00,
2013-02-02 20:42:00,6.6,-8.9,30.14,North,-999,-999.0,-999.0,48,0.00,,,0.00,meteohub,2013-02-03 02:42:00,
2013-02-02 20:47:00,6.6,-8.9,30.14,North,-999,-999.0,-999.0,48,0.00,,,0.00,meteohub,2013-02-03 02:47:00,
2013-02-02 20:52:00,6.6,-8.9,30.14,North,-999,-999.0,-999.0,48,0.00,,,0.00,meteohub,2013-02-03 02:52:00,
2013-02-02 20:57:00,6.4,-9.0,30.13,North,-999,-999.0,-999.0,48,0.00,,,0.00,meteohub,2013-02-03 02:57:00,
2013-02-02 21:02:00,6.4,-9.0,30.13,North,-999,-999.0,-999.0,48,0.00,,,0.00,meteohub,2013-02-03 03:02:00,
2013-02-02 21:07:00,6.3,-9.2,30.13,North,-999,-999.0,-999.0,48,0.00,,,0.00,meteohub,2013-02-03 03:07:00,
2013-02-02 21:12:00,6.1,-9.4,30.13,North,-999,-999.0,-999.0,48,0.00,,,0.00,meteohub,2013-02-03 03:12:00,
2013-02-02 21:17:00,5.7,-10.1,30.14,North,-999,-999.0,-999.0,47,0.00,,,0.00,meteohub,2013-02-03 03:17:00,
2013-02-02 21:22:00,5.5,-9.9,30.13,North,-999,-999.0,-999.0,48,0.00,,,0.00,meteohub,2013-02-03 03:22:00,
2013-02-02 21:27:00,5.2,-10.3,30.13,North,-999,-999.0,-999.0,48,0.00,,,0.00,meteohub,2013-02-03 03:27:00,
2013-02-02 21:32:00,4.8,-10.1,30.13,North,-999,-999.0,-999.0,49,0.00,,,0.00,meteohub,2013-02-03 03:32:00,
2013-02-02 21:42:00,4.1,-10.8,30.12,North,-999,-999.0,-999.0,49,0.00,,,0.00,meteohub,2013-02-03 03:42:00,
2013-02-02 21:47:00,4.1,-10.5,30.12,North,-999,-999.0,-999.0,50,0.00,,,0.00,meteohub,2013-02-03 03:47:00,
2013-02-02 21:52:00,3.7,-10.8,30.12,North,-999,-999.0,-999.0,50,0.00,,,0.00,meteohub,2013-02-03 03:52:00,
2013-02-02 21:57:00,3.4,-11.0,30.12,North,-999,-999.0,-999.0,50,0.00,,,0.00,meteohub,2013-02-03 03:57:00,
2013-02-02 22:02:00,3.2,-11.2,30.12,North,-999,-999.0,-999.0,50,0.00,,,0.00,meteohub,2013-02-03 04:02:00,
2013-02-02 22:07:00,3.0,-11.0,30.12,North,-999,-999.0,-999.0,51,0.00,,,0.00,meteohub,2013-02-03 04:07:00,
2013-02-02 22:12:00,2.8,-11.2,30.12,North,-999,-999.0,-999.0,51,0.00,,,0.00,meteohub,2013-02-03 04:12:00,
2013-02-02 22:17:00,2.8,-10.8,30.12,North,-999,-999.0,-999.0,52,0.00,,,0.00,meteohub,2013-02-03 04:17:00,
2013-02-02 22:22:00,3.0,-11.0,30.12,North,-999,-999.0,-999.0,51,0.00,,,0.00,meteohub,2013-02-03 04:22:00,
2013-02-02 22:27:00,3.0,-10.7,30.12,North,-999,-999.0,-999.0,52,0.00,,,0.00,meteohub,2013-02-03 04:27:00,
2013-02-02 22:32:00,3.2,-10.8,30.12,North,-999,-999.0,-999.0,51,0.00,,,0.00,meteohub,2013-02-03 04:32:00,
2013-02-02 22:37:00,3.2,-10.8,30.11,North,-999,-999.0,-999.0,51,0.00,,,0.00,meteohub,2013-02-03 04:37:00,
2013-02-02 22:42:00,3.2,-10.8,30.12,North,-999,-999.0,-999.0,51,0.00,,,0.00,meteohub,2013-02-03 04:42:00,
2013-02-02 22:47:00,3.0,-10.7,30.11,North,-999,-999.0,-999.0,52,0.00,,,0.00,meteohub,2013-02-03 04:47:00,
2013-02-02 22:52:00,2.7,-11.0,30.11,North,-999,-999.0,-999.0,52,0.00,,,0.00,meteohub,2013-02-03 04:52:00,
2013-02-02 22:57:00,2.3,-11.4,30.11,North,-999,-999.0,-999.0,52,0.00,,,0.00,meteohub,2013-02-03 04:57:00,
2013-02-02 23:02:00,2.3,-11.4,30.11,North,-999,-999.0,-999.0,52,0.00,,,0.00,meteohub,2013-02-03 05:02:00,
2013-02-02 23:07:00,2.1,-11.0,30.10,North,-999,-999.0,-999.0,53,0.00,,,0.00,meteohub,2013-02-03 05:07:00,
2013-02-02 23:12:00,2.1,-11.0,30.11,North,-999,-999.0,-999.0,53,0.00,,,0.00,meteohub,2013-02-03 05:12:00,
2013-02-02 23:17:00,2.1,-11.0,30.10,North,-999,-999.0,-999.0,53,0.00,,,0.00,meteohub,2013-02-03 05:17:00,
2013-02-02 23:22:00,2.3,-10.8,30.10,North,-999,-999.0,-999.0,53,0.00,,,0.00,meteohub,2013-02-03 05:22:00,
2013-02-02 23:27:00,2.3,-10.8,30.10,North,-999,-999.0,-999.0,53,0.00,,,0.00,meteohub,2013-02-03 05:27:00,
2013-02-02 23:32:00,2.3,-10.5,30.10,North,-999,-999.0,-999.0,54,0.00,,,0.00,meteohub,2013-02-03 05:32:00,
2013-02-02 23:37:00,2.3,-10.5,30.10,North,-999,-999.0,-999.0,54,0.00,,,0.00,meteohub,2013-02-03 05:37:00,
2013-02-02 23:42:00,2.5,-10.3,30.10,North,-999,-999.0,-999.0,54,0.00,,,0.00,meteohub,2013-02-03 05:42:00,
2013-02-02 23:47:00,2.7,-9.8,30.10,North,-999,-999.0,-999.0,55,0.00,,,0.00,meteohub,2013-02-03 05:47:00,
2013-02-02 23:52:00,2.7,-9.8,30.09,North,-999,-999.0,-999.0,55,0.00,,,0.00,meteohub,2013-02-03 05:52:00,
2013-02-02 23:57:00,3.0,-9.6,30.09,North,-999,-999.0,-999.0,55,0.00,,,0.00,meteohub,2013-02-03 05:57:00,